Location: Colle Santa Colomba
(42.0333°N, 12.5667°E)
Time: 02:13:00
(UTC+00:00)

Cosmos 1892 - Pass Details

Date: 25 October 2021
Orbit: 501 x 522 km, 82.5° (Epoch: 28 November)

Event Time Altitude Azimuth Distance (km) Brightness Sun altitude
Rises 16:55:40 0° 8° (N) 2,611 6.1 -8.6°
Reaches altitude 10° 16:58:20 10° 28° (NNE) 1,719 5.0 -9.1°
Maximum altitude 17:00:58 18° 73° (ENE) 1,287 4.1 -9.6°
Drops below altitude 10° 17:03:36 10° 117° (ESE) 1,706 4.8 -10.0°
Enters shadow 17:04:39 - 127° (SE) 2,031 5.3 -10.2°
